• In Österreich
  • Länderverzeichnis
  • Für 7 Tage
  • Wassertemperatur
  • Satellitenkarten
  • Wetterkarte
  • News
  • Widgets
  • user-avatar
    Anmelden

    Stündliche Wetter Pinsk

    Heute, 19 Februar, Montag

    Zeit Temperatur Niederschläge Wind Luftdruck Luftfeuchtigkeit
    00:00 -8°C° 0 mm 3 m/S 756 mmHg 90%
    01:00 -7°C° 0 mm 2 m/S 756 mmHg 91%
    02:00 -8°C° 0 mm 2 m/S 756 mmHg 93%
    03:00 -8°C° 0 mm 2 m/S 756 mmHg 93%
    04:00 -8°C° 0 mm 2 m/S 756 mmHg 92%
    05:00 -8°C° 0 mm 2 m/S 755 mmHg 92%
    06:00 -9°C° 0 mm 3 m/S 755 mmHg 91%
    07:00 -8°C° 0 mm 3 m/S 755 mmHg 91%
    08:00 -8°C° 0 mm 3 m/S 755 mmHg 91%
    09:00 -7°C° 0 mm 3 m/S 755 mmHg 88%
    10:00 -5°C° 0 mm 3 m/S 755 mmHg 84%
    11:00 -4°C° 0 mm 3 m/S 755 mmHg 81%
    12:00 -2°C° 0 mm 3 m/S 755 mmHg 81%
    13:00 -1°C° 0 mm 3 m/S 755 mmHg 82%
    14:00 -2°C° 0 mm 4 m/S 755 mmHg 82%
    15:00 -1°C° 0 mm 3 m/S 755 mmHg 84%
    16:00 -1°C° 0 mm 3 m/S 755 mmHg 85%
    17:00 -1°C° 0 mm 2 m/S 755 mmHg 87%
    18:00 -2°C° 0 mm 2 m/S 755 mmHg 89%
    19:00 -2°C° 0 mm 2 m/S 755 mmHg 90%
    20:00 -3°C° 0 mm 2 m/S 755 mmHg 92%
    21:00 -3°C° 0 mm 2 m/S 755 mmHg 92%
    22:00 -3°C° 0 mm 2 m/S 755 mmHg 92%
    23:00 -2°C° 0 mm 1 m/S 755 mmHg 93%

    Morgen, 20 Februar, Dienstag

    Zeit Temperatur Niederschläge Wind Luftdruck Luftfeuchtigkeit
    00:00 -2°C° 0 mm 1 m/S 755 mmHg 93%
    01:00 -3°C° 0 mm 1 m/S 756 mmHg 94%
    02:00 -3°C° 0 mm 1 m/S 756 mmHg 94%
    03:00 -4°C° 0 mm 1 m/S 756 mmHg 94%
    04:00 -4°C° 0 mm 1 m/S 756 mmHg 94%
    05:00 -4°C° 0 mm 1 m/S 756 mmHg 94%
    06:00 -4°C° 0 mm 1 m/S 756 mmHg 94%
    07:00 -4°C° 0 mm 1 m/S 756 mmHg 94%
    08:00 -4°C° 0 mm 1 m/S 756 mmHg 94%
    09:00 -3°C° 0 mm 1 m/S 756 mmHg 91%
    10:00 -2°C° 0 mm 1 m/S 756 mmHg 88%
    11:00 -1°C° 0 mm 1 m/S 756 mmHg 85%
    12:00 -1°C° 0 mm 1 m/S 756 mmHg 84%
    13:00 0°C° 0 mm 1 m/S 756 mmHg 82%
    14:00 0°C° 0 mm 1 m/S 756 mmHg 80%
    15:00 0°C° 0 mm 1 m/S 756 mmHg 81%
    16:00 -1°C° 0 mm 1 m/S 755 mmHg 83%
    17:00 -1°C° 0 mm 1 m/S 755 mmHg 85%
    18:00 -2°C° 0 mm 1 m/S 755 mmHg 86%
    19:00 -3°C° 0 mm 1 m/S 755 mmHg 88%
    20:00 -6°C° 0 mm 2 m/S 756 mmHg 89%
    21:00 -6°C° 0 mm 2 m/S 756 mmHg 89%
    22:00 -6°C° 0 mm 2 m/S 756 mmHg 89%
    23:00 -6°C° 0 mm 2 m/S 756 mmHg 89%

    übermorgen, 21 Februar, Mittwoch

    Zeit Temperatur Niederschläge Wind Luftdruck Luftfeuchtigkeit
    00:00 -7°C° 0 mm 2 m/S 756 mmHg 89%
    01:00 -6°C° 0 mm 1 m/S 756 mmHg 89%
    02:00 -6°C° 0 mm 1 m/S 756 mmHg 89%
    03:00 -6°C° 0 mm 1 m/S 755 mmHg 90%
    04:00 -6°C° 0 mm 1 m/S 755 mmHg 91%
    05:00 -7°C° 0 mm 1 m/S 755 mmHg 91%
    06:00 -7°C° 0 mm 1 m/S 755 mmHg 91%
    07:00 -7°C° 0 mm 1 m/S 755 mmHg 91%
    08:00 -7°C° 0 mm 1 m/S 755 mmHg 92%
    09:00 -4°C° 0 mm 1 m/S 755 mmHg 88%
    10:00 -3°C° 0 mm 1 m/S 755 mmHg 85%
    11:00 -2°C° 0 mm 1 m/S 755 mmHg 81%
    12:00 -1°C° 0 mm 1 m/S 754 mmHg 79%
    13:00 -1°C° 0 mm 1 m/S 754 mmHg 76%
    14:00 0°C° 0 mm 1 m/S 754 mmHg 73%
    15:00 -1°C° 0 mm 1 m/S 754 mmHg 76%
    16:00 -1°C° 0 mm 1 m/S 754 mmHg 79%
    17:00 -2°C° 0 mm 1 m/S 754 mmHg 81%
    18:00 -2°C° 0 mm 1 m/S 754 mmHg 83%
    19:00 -3°C° 0 mm 1 m/S 754 mmHg 85%
    20:00 -4°C° 0 mm 1 m/S 754 mmHg 87%
    21:00 -4°C° 0 mm 1 m/S 754 mmHg 88%
    22:00 -4°C° 0 mm 1 m/S 754 mmHg 89%
    23:00 -4°C° 0 mm 1 m/S 754 mmHg 89%

    22 Februar, Donnerstag

    Zeit Temperatur Niederschläge Wind Luftdruck Luftfeuchtigkeit
    00:00 -4°C° 0 mm 1 m/S 754 mmHg 90%
    01:00 -6°C° 0 mm 1 m/S 754 mmHg 91%
    02:00 -6°C° 0 mm 1 m/S 754 mmHg 92%
    03:00 -6°C° 0 mm 1 m/S 754 mmHg 92%
    04:00 -6°C° 0 mm 1 m/S 754 mmHg 92%
    05:00 -6°C° 0 mm 1 m/S 754 mmHg 93%
    06:00 -6°C° 0 mm 1 m/S 755 mmHg 93%
    07:00 -6°C° 0 mm 1 m/S 755 mmHg 93%
    08:00 -6°C° 0 mm 1 m/S 755 mmHg 93%
    09:00 -4°C° 0 mm 1 m/S 755 mmHg 90%
    10:00 -3°C° 0 mm 1 m/S 755 mmHg 87%
    11:00 -2°C° 0 mm 1 m/S 755 mmHg 84%
    12:00 -2°C° 0 mm 1 m/S 755 mmHg 83%
    13:00 -1°C° 0 mm 1 m/S 755 mmHg 81%
    14:00 -3°C° 0 mm 2 m/S 755 mmHg 80%
    15:00 -3°C° 0 mm 2 m/S 754 mmHg 82%
    16:00 -3°C° 0 mm 2 m/S 754 mmHg 84%
    17:00 -3°C° 0 mm 2 m/S 754 mmHg 86%
    18:00 -4°C° 0 mm 2 m/S 754 mmHg 88%
    19:00 -4°C° 0 mm 2 m/S 754 mmHg 89%
    20:00 -5°C° 0 mm 2 m/S 754 mmHg 91%
    21:00 -5°C° 0,1 mm 2 m/S 754 mmHg 91%
    22:00 -6°C° 0,1 mm 3 m/S 754 mmHg 92%
    23:00 -7°C° 0,1 mm 3 m/S 755 mmHg 92%

    23 Februar, Freitag

    Zeit Temperatur Niederschläge Wind Luftdruck Luftfeuchtigkeit
    00:00 -7°C° 0,1 mm 3 m/S 754 mmHg 92%
    01:00 -7°C° 0,1 mm 3 m/S 754 mmHg 92%
    02:00 -8°C° 0,1 mm 3 m/S 754 mmHg 92%
    03:00 -8°C° 0,1 mm 3 m/S 754 mmHg 92%
    04:00 -8°C° 0,1 mm 3 m/S 754 mmHg 92%
    05:00 -9°C° 0,1 mm 3 m/S 754 mmHg 92%
    06:00 -9°C° 0,1 mm 3 m/S 753 mmHg 91%
    07:00 -9°C° 0,1 mm 3 m/S 753 mmHg 91%
    08:00 -11°C° 0,1 mm 4 m/S 753 mmHg 91%
    09:00 -11°C° 0,1 mm 4 m/S 753 mmHg 89%
    10:00 -10°C° 0,1 mm 4 m/S 753 mmHg 88%
    11:00 -10°C° 0,1 mm 4 m/S 753 mmHg 87%
    12:00 -10°C° 0,1 mm 4 m/S 753 mmHg 85%
    13:00 -10°C° 0,1 mm 4 m/S 753 mmHg 84%
    14:00 -10°C° 0,1 mm 4 m/S 753 mmHg 83%
    15:00 -10°C° 0,1 mm 4 m/S 753 mmHg 83%
    16:00 -12°C° 0,1 mm 5 m/S 752 mmHg 83%
    17:00 -12°C° 0,1 mm 5 m/S 752 mmHg 83%
    18:00 -13°C° 0 mm 5 m/S 753 mmHg 83%
    19:00 -14°C° 0 mm 5 m/S 753 mmHg 83%
    20:00 -15°C° 0 mm 5 m/S 753 mmHg 83%
    21:00 -15°C° 0 mm 5 m/S 753 mmHg 84%
    22:00 -17°C° 0 mm 5 m/S 753 mmHg 84%
    23:00 -17°C° 0 mm 5 m/S 753 mmHg 85%

    24 Februar, Samstag

    Zeit Temperatur Niederschläge Wind Luftdruck Luftfeuchtigkeit
    00:00 -18°C° 0 mm 5 m/S 753 mmHg 85%
    01:00 -18°C° 0 mm 5 m/S 753 mmHg 85%
    02:00 -18°C° 0 mm 5 m/S 753 mmHg 86%
    03:00 -18°C° 0 mm 5 m/S 753 mmHg 86%
    04:00 -19°C° 0 mm 5 m/S 753 mmHg 86%
    05:00 -19°C° 0 mm 5 m/S 753 mmHg 86%
    06:00 -19°C° 0 mm 5 m/S 753 mmHg 86%
    07:00 -19°C° 0 mm 5 m/S 753 mmHg 86%
    08:00 -19°C° 0 mm 5 m/S 753 mmHg 85%
    09:00 -18°C° 0 mm 5 m/S 752 mmHg 83%
    10:00 -18°C° 0 mm 5 m/S 752 mmHg 80%
    11:00 -17°C° 0 mm 5 m/S 752 mmHg 77%
    12:00 -17°C° 0 mm 6 m/S 752 mmHg 76%
    13:00 -16°C° 0 mm 6 m/S 752 mmHg 74%
    14:00 -16°C° 0 mm 6 m/S 751 mmHg 73%
    15:00 -16°C° 0 mm 6 m/S 751 mmHg 74%
    16:00 -15°C° 0 mm 5 m/S 751 mmHg 75%
    17:00 -15°C° 0 mm 5 m/S 751 mmHg 77%
    18:00 -17°C° 0 mm 5 m/S 750 mmHg 79%
    19:00 -17°C° 0 mm 5 m/S 750 mmHg 81%
    20:00 -16°C° 0 mm 4 m/S 750 mmHg 83%
    21:00 -17°C° 0,1 mm 5 m/S 750 mmHg 84%
    22:00 -17°C° 0,1 mm 5 m/S 749 mmHg 85%
    23:00 -17°C° 0,1 mm 5 m/S 749 mmHg 86%
    Mehr zeigen